Waarnemingen

Advertentie
Mijn weer
Menorca/Mahon, Spanje (8314): temperatuur & dauwpunt: 11.10.2018 05:00:00 - 17.10.2018 05:00:00 (CEST)Menorca/Mahon, Spanje (8314): windsnelheid & windstoten: 11.10.2018 05:00:00 - 17.10.2018 05:00:00 (CEST)Menorca/Mahon, Spanje (8314): windrichting: 11.10.2018 05:00:00 - 17.10.2018 05:00:00 (CEST)Menorca/Mahon, Spanje (8314): luchtdruk: 11.10.2018 05:00:00 - 17.10.2018 05:00:00 (CEST)Menorca/Mahon, Spanje (8314): zicht: 11.10.2018 05:00:00 - 17.10.2018 05:00:00 (CEST)
Datum & Tijd tt [°C] td [°C] ff [km/u] ff [kn] fx [km/u] fx [kn] dd ppp [hPa] vv [km]
17.10.2018 05:00:00 - - - - - - - - -
17.10.2018 04:00:00 15,2 13,7 11 6 - - N 1014,3 -
17.10.2018 03:00:00 15,5 14,0 11 6 - - N 1014,8 -
17.10.2018 02:00:00 - - - - - - - - -
17.10.2018 01:00:00 15,9 13,7 8 4 - - N 1015,2 -
17.10.2018 00:00:00 16,0 13,8 8 4 - - NNO 1015,7 -
16.10.2018 23:00:00 16,1 13,8 8 4 - - NO 1015,9 30
16.10.2018 22:00:00 16,6 13,7 5 3 - - NO 1015,6 -
16.10.2018 21:00:00 18,4 14,3 11 6 - - ONO 1015,3 -
16.10.2018 20:00:00 18,6 14,5 9 5 - - NO 1015,3 16
16.10.2018 19:00:00 19,6 14,5 8 4 - - ONO 1014,9 -
16.10.2018 18:00:00 21,0 14,6 9 5 - - ONO 1014,6 -
16.10.2018 17:00:00 22,3 15,0 8 4 - - OZO 1014,6 28
16.10.2018 16:00:00 24,7 13,7 4 2 - - Z 1014,2 -
16.10.2018 15:00:00 24,4 12,8 11 6 - - ZW 1014,0 25
16.10.2018 14:00:00 25,3 13,4 8 4 - - ZW 1014,2 24
16.10.2018 13:00:00 23,3 13,9 4 2 - - ZZW 1014,8 -
16.10.2018 12:00:00 22,0 14,9 4 2 - - ZZO 1014,5 -
16.10.2018 11:00:00 20,0 15,3 4 2 - - ONO 1014,4 25
16.10.2018 10:00:00 18,2 15,3 2 1 - - NNO 1014,3 -
16.10.2018 09:00:00 19,0 15,1 4 2 - - NNO 1013,9 20
16.10.2018 08:00:00 16,5 14,0 0 0 - - N 1013,2 20
16.10.2018 07:00:00 15,6 13,4 0 0 - - N 1012,8 -
16.10.2018 06:00:00 15,0 12,5 5 3 - - OZO 1012,4 -
16.10.2018 05:00:00 14,7 12,2 0 0 - - N 1012,0 -
16.10.2018 04:00:00 15,6 12,2 0 0 - - N 1012,3 -
16.10.2018 03:00:00 17,3 12,0 4 2 - - WZW 1012,7 -
16.10.2018 02:00:00 18,2 13,3 2 1 - - WZW 1012,6 -
16.10.2018 01:00:00 18,2 12,9 4 2 - - ZZW 1012,6 -
16.10.2018 00:00:00 19,2 12,2 11 6 - - ZW 1012,6 -
15.10.2018 23:00:00 19,5 12,7 15 8 - - ZW 1012,4 25
15.10.2018 22:00:00 19,2 13,1 9 5 - - ZW 1011,9 -
15.10.2018 21:00:00 19,5 12,7 13 7 - - ZW 1011,3 -
15.10.2018 20:00:00 19,4 13,1 13 7 - - ZZW 1011,0 25
15.10.2018 19:00:00 19,8 12,3 15 8 - - ZW 1010,4 -
15.10.2018 18:00:00 21,7 13,0 16 9 - - ZW 1009,9 -
15.10.2018 17:00:00 22,5 12,6 22 12 - - ZW 1009,3 25
15.10.2018 16:00:00 22,7 12,8 28 15 - - WZW 1009,1 -
15.10.2018 15:00:00 22,7 13,5 31 17 - - ZW 1008,8 26
15.10.2018 14:00:00 22,7 13,0 31 17 - - ZW 1009,0 28
15.10.2018 13:00:00 22,8 13,7 31 17 - - WZW 1009,0 -
15.10.2018 12:00:00 21,5 12,7 35 19 - - ZW 1008,6 -
15.10.2018 11:00:00 21,9 12,2 34 18 - - ZW 1008,1 28
15.10.2018 10:00:00 20,7 12,0 34 18 - - ZW 1007,7 -
15.10.2018 09:00:00 20,1 13,2 37 20 - - ZW 1007,2 27
15.10.2018 08:00:00 20,2 14,5 35 19 - - ZW 1006,5 30
15.10.2018 07:00:00 20,3 17,5 29 16 - - ZW 1006,0 -
15.10.2018 06:00:00 20,3 19,3 31 17 109 59 ZZW 1005,8 -
15.10.2018 05:00:00 18,5 17,6 48 26 - - Z 1006,0 -
15.10.2018 04:00:00 21,7 19,1 39 21 - - ZZO 1006,2 -
15.10.2018 03:00:00 21,3 19,4 34 18 - - ZZO 1007,0 -
15.10.2018 02:00:00 21,7 19,3 39 21 - - ZZO 1007,6 -
15.10.2018 01:00:00 22,0 18,8 41 22 - - ZO 1007,9 -
15.10.2018 00:00:00 21,4 18,6 37 20 - - ZO 1008,2 -
14.10.2018 23:00:00 22,1 18,3 34 18 - - ZZO 1009,3 19
14.10.2018 22:00:00 22,0 18,0 28 15 - - ZO 1009,3 -
14.10.2018 21:00:00 21,8 17,8 34 18 - - ZO 1009,3 -
14.10.2018 20:00:00 21,8 18,0 29 16 - - ZO 1009,4 22
14.10.2018 19:00:00 21,8 18,0 28 15 - - ZO 1009,0 -
14.10.2018 18:00:00 22,1 17,9 29 16 - - ZO 1009,2 -
14.10.2018 17:00:00 24,0 17,9 34 18 - - ZO 1009,0 25
14.10.2018 16:00:00 24,5 18,4 31 17 - - ZO 1009,8 -
14.10.2018 15:00:00 24,3 17,8 34 18 - - ZO 1010,6 20
14.10.2018 14:00:00 24,6 17,8 31 17 - - ZO 1011,5 22
14.10.2018 13:00:00 24,6 17,5 29 16 - - ZO 1012,8 -
14.10.2018 12:00:00 23,6 17,4 31 17 - - ZZO 1013,3 -
14.10.2018 11:00:00 23,2 17,4 28 15 - - ZZO 1013,4 22
14.10.2018 10:00:00 23,1 17,1 29 16 - - ZZO 1013,6 -
14.10.2018 09:00:00 21,9 17,7 24 13 - - ZO 1013,4 20
14.10.2018 08:00:00 20,7 18,1 22 12 - - ZO 1013,2 20
14.10.2018 07:00:00 20,9 18,7 22 12 - - ZO 1013,4 -
14.10.2018 06:00:00 20,8 18,6 18 10 - - ZO 1013,8 -
14.10.2018 05:00:00 20,2 18,0 13 7 - - ZO 1014,1 -
14.10.2018 04:00:00 20,8 18,2 16 9 - - ZZO 1014,9 -
14.10.2018 03:00:00 20,1 18,4 9 5 - - ZO 1015,6 -
14.10.2018 02:00:00 19,9 18,4 8 4 - - ZO 1016,2 -
14.10.2018 01:00:00 19,3 18,0 8 4 - - ZO 1016,4 -
14.10.2018 00:00:00 19,0 17,6 8 4 - - ZO 1016,9 -
13.10.2018 23:00:00 19,3 17,8 8 4 - - ZO 1017,4 27
13.10.2018 22:00:00 19,1 17,2 8 4 - - OZO 1017,5 -
13.10.2018 21:00:00 19,4 17,4 8 4 - - OZO 1017,6 -
13.10.2018 20:00:00 20,0 17,6 5 3 - - OZO 1017,9 27
13.10.2018 19:00:00 21,2 18,0 9 5 - - ZO 1017,8 -
13.10.2018 18:00:00 23,0 18,3 13 7 - - ZO 1017,9 -
13.10.2018 17:00:00 23,6 18,6 13 7 - - ZO 1018,3 30
13.10.2018 16:00:00 24,7 18,6 13 7 - - OZO 1018,7 -
13.10.2018 15:00:00 25,0 18,0 9 5 - - OZO 1019,1 40
13.10.2018 14:00:00 23,5 18,6 15 8 - - OZO 1020,0 30
13.10.2018 13:00:00 24,8 18,8 13 7 - - OZO 1020,5 -
13.10.2018 12:00:00 25,4 18,6 8 4 - - ZO 1020,8 -
13.10.2018 11:00:00 24,1 19,9 8 4 - - O 1021,0 25
13.10.2018 10:00:00 22,3 20,4 8 4 - - O 1020,9 -
13.10.2018 09:00:00 20,1 19,6 5 3 - - O 1020,9 22
13.10.2018 08:00:00 17,5 17,0 4 2 - - ONO 1020,9 8
13.10.2018 07:00:00 17,6 17,0 4 2 - - ONO 1021,2 -
13.10.2018 06:00:00 18,6 17,9 8 4 - - OZO 1021,2 -
13.10.2018 05:00:00 17,2 16,4 0 0 - - N 1021,2 -
13.10.2018 04:00:00 19,3 18,5 5 3 - - ZO 1021,4 -
13.10.2018 03:00:00 19,7 18,9 5 3 - - ZO 1021,9 -
13.10.2018 02:00:00 19,9 19,0 5 3 - - ZO 1022,2 -
13.10.2018 01:00:00 19,9 18,9 5 3 - - ZO 1022,4 -
13.10.2018 00:00:00 20,4 19,4 5 3 - - ZO 1022,8 -
12.10.2018 23:00:00 20,6 19,6 8 4 - - ZO 1023,2 15
12.10.2018 22:00:00 20,8 19,5 4 2 - - OZO 1023,1 -
12.10.2018 21:00:00 20,8 19,5 4 2 - - OZO 1022,7 -
12.10.2018 20:00:00 21,4 19,7 2 1 - - ZZO 1022,5 18
12.10.2018 19:00:00 22,6 19,8 4 2 - - Z 1022,0 -
12.10.2018 18:00:00 25,1 20,3 5 3 - - ZZW 1021,8 -
12.10.2018 17:00:00 26,0 19,6 8 4 - - ZZW 1022,0 25
12.10.2018 16:00:00 26,2 19,8 8 4 - - ZW 1022,3 -
12.10.2018 15:00:00 25,5 20,3 9 5 - - ZW 1022,2 30
12.10.2018 14:00:00 25,4 20,3 8 4 - - ZZW 1022,4 30
12.10.2018 13:00:00 26,0 20,5 9 5 - - Z 1022,7 -
12.10.2018 12:00:00 25,3 21,0 8 4 - - Z 1022,8 -
12.10.2018 11:00:00 24,1 21,3 9 5 - - Z 1022,5 15
12.10.2018 10:00:00 22,5 21,1 11 6 - - ZZO 1022,1 -
12.10.2018 09:00:00 21,2 20,9 5 3 - - OZO 1021,7 12
12.10.2018 08:00:00 19,0 18,7 5 3 - - O 1020,9 0,4
12.10.2018 07:00:00 18,9 18,6 4 2 - - NO 1020,6 -
12.10.2018 06:00:00 18,0 17,5 5 3 - - O 1019,8 -
12.10.2018 05:00:00 17,8 17,5 4 2 - - NO 1019,6 -
12.10.2018 04:00:00 18,6 18,3 4 2 - - O 1019,4 -
12.10.2018 03:00:00 19,1 18,6 9 5 - - OZO 1019,0 -
12.10.2018 02:00:00 19,6 19,1 4 2 - - ZO 1018,9 -
12.10.2018 01:00:00 17,7 17,1 4 2 - - ONO 1019,0 -
12.10.2018 00:00:00 17,7 16,9 2 1 - - ONO 1018,7 -
11.10.2018 23:00:00 18,0 17,2 4 2 - - NW 1019,0 14
11.10.2018 22:00:00 19,4 18,7 4 2 - - O 1017,8 -
11.10.2018 21:00:00 20,5 19,2 5 3 - - ZO 1017,0 -
11.10.2018 20:00:00 20,6 18,6 0 0 - - N 1016,5 23
11.10.2018 19:00:00 23,1 18,4 0 0 - - N 1015,7 -
11.10.2018 18:00:00 25,2 19,1 5 3 - - ZZW 1014,7 -
11.10.2018 17:00:00 25,2 18,9 9 5 - - ZZW 1014,9 30
11.10.2018 16:00:00 26,3 17,3 9 5 - - ZZW 1014,5 -
11.10.2018 15:00:00 25,3 17,2 11 6 - - ZW 1014,7 25
11.10.2018 14:00:00 26,7 15,6 11 6 - - ZZW 1014,3 25
11.10.2018 13:00:00 26,2 17,0 4 2 - - O 1014,4 -
11.10.2018 12:00:00 25,5 17,3 9 5 - - OZO 1014,6 -
11.10.2018 11:00:00 24,3 17,1 5 3 - - ONO 1014,2 25
11.10.2018 10:00:00 21,8 19,5 0 0 - - N 1013,6 -
11.10.2018 09:00:00 19,4 18,9 4 2 - - NW 1013,0 25
11.10.2018 08:00:00 17,6 17,1 5 3 - - NNW 1012,6 22
11.10.2018 07:00:00 17,1 16,6 5 3 - - NW 1012,2 -
11.10.2018 06:00:00 16,6 16,0 5 3 - - WNW 1011,7 -
11.10.2018 05:00:00 18,1 17,5 2 1 - - WNW 1011,4 -

tt = temperatuur
td = dauwpunt
ff = windsnelheid
fx = windstoten
dd = windrichting
ppp = luchtdruk
vv = zicht

Weerstations in de omgeving